This is the latest recevied weather packets stored in our database for station/object K4MUW-4. If no packets are shown the sender has not sent any weather packets the latest 10 day(s).
| Time | Temp. | Humidity | Pressure | Rain* | Wind** | Luminosity | Snow |
|---|---|---|---|---|---|---|---|
| 1777937672 | 24.44° C | 28% | 1011 hPa | 0 mm | 1.34 m/s, 192° | - | - |
| 1777937602 | 24.44° C | 28% | 1011 hPa | 0 mm | 1.34 m/s, 192° | - | - |
| 1777937301 | 24.44° C | 27% | 1011 hPa | 0 mm | 2.24 m/s, 186° | - | - |
| 1777937001 | 25° C | 26% | 1011 hPa | 0 mm | 0 m/s | - | - |
| 1777936700 | 25° C | 26% | 1010 hPa | 0 mm | 1.34 m/s, 187° | - | - |
| 1777936400 | 25° C | 25% | 1010 hPa | 0 mm | 0 m/s | - | - |
| 1777936095 | 25.56° C | 25% | 1010 hPa | 0 mm | 0 m/s | - | - |
| 1777935795 | 25.56° C | 25% | 1011 hPa | 0 mm | 1.79 m/s, 166° | - | - |
| 1777935494 | 25.56° C | 25% | 1011 hPa | 0 mm | 1.34 m/s, 198° | - | - |
| 1777935194 | 25.56° C | 25% | 1011 hPa | 0 mm | 1.34 m/s, 223° | - | - |
| 1777934894 | 25.56° C | 25% | 1011 hPa | 0 mm | 1.34 m/s, 194° | - | - |
| 1777934593 | 25.56° C | 25% | 1011 hPa | 0 mm | 1.79 m/s, 180° | - | - |
| 1777934293 | 25.56° C | 25% | 1011 hPa | 0 mm | 1.79 m/s, 178° | - | - |
| 1777933992 | 25.56° C | 26% | 1011 hPa | 0 mm | 1.79 m/s, 183° | - | - |
| 1777933692 | 25.56° C | 26% | 1011 hPa | 0 mm | 0 m/s | - | - |
| 1777933392 | 25.56° C | 25% | 1011 hPa | 0 mm | 2.68 m/s, 202° | - | - |
| 1777933091 | 25.56° C | 26% | 1011 hPa | 0 mm | 0 m/s | - | - |
| 1777932791 | 25.56° C | 26% | 1011 hPa | 0 mm | 1.34 m/s, 196° | - | - |
| 1777932490 | 25.56° C | 27% | 1011 hPa | 0 mm | 1.79 m/s, 254° | - | - |
| 1777932190 | 25.56° C | 27% | 1011 hPa | 0 mm | 1.34 m/s, 193° | - | - |
| 1777931890 | 25.56° C | 26% | 1011 hPa | 0 mm | 1.79 m/s, 249° | - | - |
| 1777931589 | 25.56° C | 27% | 1011 hPa | 0 mm | 0 m/s | - | - |
| 1777931289 | 25.56° C | 27% | 1011 hPa | 0 mm | 1.79 m/s, 165° | - | - |
| 1777930989 | 25.56° C | 27% | 1011 hPa | 0 mm | 1.34 m/s, 192° | - | - |
| 1777930688 | 25.56° C | 28% | 1011 hPa | 0 mm | 0 m/s | - | - |
* Rain latest hour (hover to see other rain measurements)
** Current wind speed in m/s (hover to see current wind gust speed)